Regional Weather Roundup
Issued by NWS Midland/Odessa, TX

Home | Current Version | Previous Version | Text Only | Print | Product List | Glossary On
Versions: 1 2 3 4 5 6 7 8 9 10 11 12 13 14 15 16 17 18 19 20 21 22 23 24 25 26 27 28 29 30 31 32 33 34 35 36 37 38 39 40 41 42 43
000
ASUS44 KMAF 251410
RWRMAF
MIDLAND AREA WEATHER ROUNDUP
NATIONAL WEATHER SERVICE MIDLAND TX
900 AM CDT MON MAY 25 2015

...IN SOUTHWEST TEXAS AND SOUTHEAST NEW MEXICO...

CITY           SKY/WX    TMP DP  RH WIND       PRES   REMARKS
ALPINE         SUNNY     68  30  23 SW7       30.05R
ANDREWS        FAIR      56  52  85 CALM      29.92R
ARTESIA        SUNNY     68  37  32 NW3       29.90R
BIG SPRING     CLOUDY    55  53  94 NW21G29   29.96R THUNDER
CARLSBAD       SUNNY     70  39  32 VRB5      29.88R
DRYDEN           N/A     74  68  81 SW12      29.85R
FORT STOCKTON  SUNNY     68  53  58 SW13      29.88R
GUAD PASS      SUNNY     56  30  37 SW17      30.00S
HOBBS          SUNNY     59  46  63 CALM      29.90R
MARFA          SUNNY     64  34  32 W15       30.04R
MIDLAND AIRPK  RAIN      57  54  88 N17G26    29.91F
MIDLAND INTL   CLOUDY    57  53  86 NE15      29.91R THUNDER
ODESSA           N/A    N/A N/A N/A MISG      29.92R
PECOS          SUNNY     67  53  60 CALM      29.88R
PRESIDIO       FAIR      75  27  17 W8        29.96R
SEMINOLE       CLOUDY    59  48  66 E18G24    29.90R
SNYDER         HVY RAIN  55  53  93 NW29G39   29.89R
WINK             N/A     71  52  50 CALM      29.85S
$$
...OTHER STATIONS IN TEXAS...

CITY           SKY/WX    TMP DP  RH WIND       PRES   REMARKS
ABILENE        CLOUDY    71  66  84 S14G22    29.83F
AMARILLO       CLOUDY    59  48  67 SW8       29.87S
AUSTIN         CLOUDY    75  72  90 S13       29.90F
BROWNSVILLE    CLOUDY    83  76  79 SE20G31   29.86F
CORPUS CHRISTI PTSUNNY   82  74  76 SE22      29.87S
DALLAS FTW     PTSUNNY   69  69 100 SE9       29.91R
DEL RIO        PTSUNNY   76  72  87 SE13      29.82S
EL PASO        SUNNY     64  33  31 SW6       29.97R
HOUSTON INT    MOSUNNY   79  74  84 S13       29.97R
LUBBOCK        TSTM      61  47  59 S23G29    29.96R
SAN ANGELO     PTSUNNY   74  67  78 S14       29.80S
SAN ANTONIO    CLOUDY    76  71  85 SE14      29.90S
WACO           LGT RAIN  73  70  90 S13       29.91S
WICHITA FALLS  NOT AVBL
$$
...OTHER LOCATIONS IN NEW MEXICO...

CITY           SKY/WX    TMP DP  RH WIND       PRES   REMARKS
ALAMAGORDO     SUNNY     57  34  41 SE5       29.98R
ALBUQUERQUE    PTSUNNY   52  44  74 S6        30.01S
CANNON AFB     MOSUNNY   55  45  68 SW8       29.91R
CLOVIS         PTSUNNY   54  45  71 SW7       29.91R
HOLLOMAN AFB   SUNNY     58  39  48 CALM      29.96R
ROSWELL        SUNNY     64  41  42 W8        29.88F
RUIDOSO        SUNNY     54  36  50 NW9G17    30.06S
SANTA FE       SUNNY     52  39  61 CALM      30.00S
TRUTH OR CONSE SUNNY     61  35  37 W8        30.00S
TUCUMCARI      SUNNY     62  45  53 W10       29.84F
$$


USA.gov is the U.S. government's official web portal to all federal, state and local government web resources and services.